CW1390 Weather Reports


time (UTC)temp
C
wind
direction
speed
KPH
gust
KPH
rain 1hr
cm
rain 24hr
cm
rain mn
cm
humidity
%
barometer
mb
20260506202507 13 238 1.6 9.7 0.03 0.10 0.10 73 1008.1
20260506202021 13 214 0.0 9.7 0.03 0.10 0.10 72 1008.1
20260506201527 13 222 3.2 8.0 0.03 0.10 0.10 72 1008.2
20260506201039 14 214 1.6 8.0 0.03 0.10 0.10 72 1008.1
20260506200539 14 198 0.0 8.0 0.00 0.08 0.08 72 1008.0
20260506200045 14 166 0.0 8.0 0.00 0.08 0.08 72 1007.9
20260506195545 14 149 1.6 12.9 0.00 0.08 0.08 72 1008.0
20260506195054 14 140 1.6 12.9 0.00 0.08 0.08 72 1008.2
20260506194603 14 198 1.6 12.9 0.00 0.08 0.08 72 1008.2
20260506194057 14 128 1.6 12.9 0.00 0.08 0.08 72 1008.3
20260506193559 15 244 1.6 6.4 0.00 0.08 0.08 72 1008.2
20260506193502 15 247 1.6 6.4 0.00 0.08 0.08 72 1008.3
20260506193013 15 124 1.6 12.9 0.00 0.08 0.08 73 1008.3
20260506192524 15 116 1.6 12.9 0.00 0.08 0.08 73 1008.4
20260506192035 15 158 3.2 12.9 0.00 0.08 0.08 72 1008.3
20260506191541 15 209 4.8 14.5 0.00 0.08 0.08 72 1008.4
20260506191057 15 187 3.2 12.9 0.00 0.08 0.08 72 1008.4
20260506190505 15 215 0.0 11.3 0.00 0.08 0.08 73 1008.7
20260506190019 15 96 3.2 8.0 0.03 0.08 0.08 72 1008.7
20260506185525 15 228 3.2 14.5 0.03 0.08 0.08 72 1008.9
20260506185031 15 187 4.8 14.5 0.03 0.08 0.08 72 1008.9
20260506184533 15 155 4.8 12.9 0.03 0.08 0.08 73 1008.8
20260506184041 14 234 3.2 17.7 0.03 0.08 0.08 72 1009.0
20260506183545 14 220 6.4 17.7 0.03 0.08 0.08 72 1009.2
20260506183106 14 216 1.6 12.9 0.03 0.08 0.08 72 1009.1
20260506182511 14 192 3.2 12.9 0.05 0.08 0.08 72 1009.0
20260506182017 14 204 3.2 8.0 0.05 0.08 0.08 72 1009.1
20260506181535 14 169 1.6 14.5 0.05 0.08 0.08 72 1009.2
20260506181042 14 86 3.2 14.5 0.08 0.08 0.08 72 1009.2
20260506180557 15 100 3.2 12.9 0.08 0.08 0.08 72 1009.2
20260506180006 15 119 3.2 14.5 0.05 0.05 0.05 72 1009.0
20260506175514 15 174 4.8 14.5 0.05 0.05 0.05 72 1009.2
20260506175024 15 156 8.0 12.9 0.05 0.05 0.05 72 1009.2
20260506174537 15 106 1.6 6.4 0.05 0.05 0.05 72 1009.3
20260506174048 15 157 1.6 6.4 0.05 0.05 0.05 72 1009.6
20260506173558 15 139 1.6 8.0 0.05 0.05 0.05 73 1009.7
20260506173501 15 120 1.6 6.4 0.05 0.05 0.05 73 1009.8
20260506173008 15 155 0.0 9.7 0.03 0.03 0.05 73 1010.0
20260506172517 15 144 1.6 9.7 0.03 0.03 0.03 73 1010.0
20260506172017 15 247 0.0 8.0 0.03 0.03 0.03 73 1010.1
20260506171524 15 201 3.2 9.7 0.03 0.03 0.03 73 1010.0
20260506171023 15 224 1.6 6.4 0.00 0.00 0.00 73 1010.0
20260506170530 16 2 1.6 6.4 0.00 0.00 0.00 73 1010.1
20260506170036 16 168 1.6 11.3 0.00 0.00 0.00 72 1010.3
20260506165539 16 221 4.8 11.3 0.00 0.00 0.00 72 1010.4
20260506165043 16 164 0.0 6.4 0.00 0.00 0.00 71 1010.4
20260506164558 16 145 1.6 16.1 0.00 0.00 0.00 71 1010.4
20260506164058 16 245 4.8 16.1 0.00 0.00 0.00 70 1010.5
20260506163512 16 199 1.6 8.0 0.00 0.00 0.00 70 1010.5
20260506163020 16 218 1.6 12.9 0.00 0.00 0.00 70 1010.6
20260506162529 16 222 1.6 12.9 0.00 0.00 0.00 69 1010.5
20260506162037 16 226 3.2 8.0 0.00 0.00 0.00 69 1010.5
20260506161600 16 231 3.2 14.5 0.00 0.00 0.00 69 1010.4
20260506161058 16 166 3.2 19.3 0.00 0.00 0.00 68 1010.6
20260506161000 16 247 3.2 19.3 0.00 0.00 0.00 68 1010.6
20260506160511 17 209 1.6 19.3 0.00 0.00 0.00 68 1010.6
20260506160017 17 85 6.4 17.7 0.00 0.00 0.00 67 1010.7
20260506155522 17 189 4.8 17.7 0.00 0.00 0.00 68 1010.8
20260506155025 17 218 3.2 11.3 0.00 0.00 0.00 68 1010.9
20260506154529 17 247 3.2 11.3 0.00 0.00 0.00 68 1010.9
20260506154029 17 222 3.2 11.3 0.00 0.00 0.00 68 1010.9
20260506153534 17 130 3.2 17.7 0.00 0.00 0.00 68 1011.0
20260506153034 17 173 3.2 17.7 0.00 0.00 0.00 68 1011.0
20260506152541 17 160 3.2 12.9 0.00 0.00 0.00 67 1010.9
20260506152041 17 143 6.4 14.5 0.00 0.00 0.00 67 1010.7
20260506151546 17 164 4.8 11.3 0.00 0.00 0.00 67 1010.6
20260506151046 17 156 1.6 14.5 0.00 0.00 0.00 68 1010.6
20260506150553 17 167 4.8 14.5 0.00 0.00 0.00 67 1010.7
20260506150058 17 138 3.2 14.5 0.00 0.00 0.00 67 1010.6
20260506150003 17 188 3.2 14.5 0.00 0.00 0.00 67 1010.6
20260506145512 17 226 3.2 14.5 0.00 0.00 0.00 67 1010.8
20260506145023 17 144 1.6 14.5 0.00 0.00 0.00 67 1010.7
20260506144528 17 236 4.8 19.3 0.00 0.00 0.00 67 1010.8
20260506144041 17 194 6.4 20.9 0.00 0.00 0.00 66 1010.9
20260506143548 18 139 6.4 20.9 0.00 0.00 0.00 66 1011.0
20260506143005 18 226 3.2 19.3 0.00 0.00 0.00 66 1011.1
20260506142502 18 228 6.4 17.7 0.00 0.00 0.00 66 1011.1
20260506142008 18 163 4.8 19.3 0.00 0.00 0.00 66 1011.0
20260506141511 18 213 4.8 17.7 0.00 0.00 0.00 66 1011.0
20260506141018 17 123 3.2 17.7 0.00 0.00 0.00 66 1011.0
20260506140525 17 307 4.8 17.7 0.00 0.00 0.00 66 1011.1
20260506140041 17 217 6.4 17.7 0.00 0.00 0.00 66 1011.2
20260506135541 17 143 3.2 25.7 0.00 0.00 0.00 66 1011.2
20260506135052 17 132 4.8 25.7 0.00 0.00 0.00 66 1011.2
20260506134505 17 205 3.2 19.3 0.00 0.00 0.00 66 1011.1
20260506134017 17 197 3.2 12.9 0.00 0.00 0.00 67 1011.6
20260506133520 16 247 3.2 14.5 0.00 0.00 0.00 67 1011.0
20260506133041 16 207 3.2 12.9 0.00 0.00 0.00 66 1010.8
20260506132526 16 201 3.2 12.9 0.00 0.00 0.00 67 1010.9
20260506132034 16 219 4.8 12.9 0.00 0.00 0.00 66 1010.8
20260506131537 16 150 1.6 11.3 0.00 0.00 0.00 67 1010.8
20260506131040 16 103 3.2 14.5 0.00 0.00 0.00 67 1010.8
20260506130546 16 209 6.4 12.9 0.00 0.00 0.00 66 1010.8
20260506130059 16 188 4.8 16.1 0.00 0.00 0.00 66 1010.9
20260506125602 16 189 4.8 16.1 0.00 0.00 0.00 66 1011.0
20260506125503 16 166 3.2 16.1 0.00 0.00 0.00 66 1011.0
20260506125010 16 161 4.8 16.1 0.00 0.00 0.00 66 1011.1
20260506124515 16 232 1.6 20.9 0.00 0.00 0.00 66 1011.1
20260506124026 16 211 8.0 20.9 0.00 0.00 0.00 66 1011.3
20260506123530 15 124 3.2 17.7 0.00 0.00 0.00 67 1011.4
20260506123045 15 103 8.0 17.7 0.00 0.00 0.00 67 1011.5
20260506122552 15 217 6.4 14.5 0.00 0.00 0.00 67 1011.6
20260506122004 15 214 6.4 12.9 0.00 0.00 0.00 68 1011.4
20260506121512 15 239 1.6 12.9 0.00 0.00 0.00 68 1011.4
20260506121022 15 237 1.6 8.0 0.00 0.00 0.00 69 1011.4
20260506120533 15 249 1.6 16.1 0.00 0.00 0.00 70 1011.3
20260506120047 14 147 3.2 11.3 0.00 0.00 0.00 70 1011.3
20260506115553 14 226 3.2 12.9 0.00 0.00 0.00 71 1011.3
20260506115004 14 261 1.6 6.4 0.00 0.00 0.00 71 1011.3
20260506114510 14 258 1.6 12.9 0.00 0.00 0.00 71 1011.2
20260506114010 13 226 1.6 12.9 0.00 0.00 0.00 71 1011.2
20260506113516 13 241 0.0 11.3 0.00 0.00 0.00 72 1011.3
20260506113016 13 228 3.2 11.3 0.00 0.00 0.00 72 1011.2
20260506112523 13 195 1.6 11.3 0.00 0.00 0.00 72 1011.3
20260506112026 13 249 0.0 8.0 0.00 0.00 0.00 72 1011.4
20260506111534 13 261 0.0 11.3 0.00 0.00 0.00 72 1011.3
20260506111042 13 222 1.6 11.3 0.00 0.00 0.00 73 1011.3
20260506110548 13 166 1.6 9.7 0.00 0.00 0.00 72 1011.5
20260506110056 13 340 1.6 9.7 0.00 0.00 0.00 73 1011.3
20260506105512 13 340 0.0 8.0 0.00 0.00 0.00 73 1011.2
20260506105019 12 340 0.0 6.4 0.00 0.00 0.00 72 1011.2
20260506104542 12 340 1.6 4.8 0.00 0.00 0.00 72 1011.2
20260506104044 12 340 0.0 6.4 0.00 0.00 0.00 72 1011.3
20260506103557 12 340 1.6 6.4 0.00 0.00 0.00 73 1011.4
20260506103004 12 160 0.0 1.6 0.00 0.00 0.00 73 1011.3
20260506102518 12 340 0.0 3.2 0.00 0.00 0.00 72 1011.3
20260506102028 12 136 0.0 4.8 0.00 0.00 0.00 72 1011.3
20260506101549 12 118 0.0 6.4 0.00 0.00 0.00 72 1011.3
20260506101052 12 135 0.0 8.0 0.00 0.00 0.00 72 1011.3
20260506100508 12 121 0.0 3.2 0.00 0.00 0.00 72 1011.2
20260506100028 12 133 0.0 4.8 0.00 0.00 0.00 72 1011.2
20260506095530 12 133 0.0 4.8 0.00 0.00 0.00 72 1011.1
20260506095040 12 117 0.0 6.4 0.00 0.00 0.00 72 1011.2
20260506094552 12 107 1.6 6.4 0.00 0.00 0.00 72 1011.1
20260506094004 12 135 0.0 4.8 0.00 0.00 0.00 72 1011.1
20260506093515 12 24 0.0 3.2 0.00 0.00 0.00 72 1011.0
20260506093022 12 15 0.0 8.0 0.00 0.00 0.00 72 1011.1
20260506092528 12 69 0.0 8.0 0.00 0.00 0.00 72 1011.1
20260506092028 12 139 0.0 8.0 0.00 0.00 0.00 72 1011.2
20260506091534 12 136 1.6 8.0 0.00 0.00 0.00 72 1011.2
20260506091034 12 133 0.0 8.0 0.00 0.00 0.00 72 1011.2
20260506090539 12 151 1.6 8.0 0.00 0.00 0.00 72 1011.2
20260506090040 12 161 1.6 4.8 0.00 0.00 0.00 72 1011.2
20260506085546 12 135 0.0 8.0 0.00 0.00 0.00 72 1011.4
20260506085046 12 151 0.0 8.0 0.00 0.00 0.00 72 1011.3
20260506084554 12 141 0.0 8.0 0.00 0.00 0.00 72 1011.4
20260506084056 12 133 1.6 11.3 0.00 0.00 0.00 72 1011.4
20260506084002 12 137 1.6 11.3 0.00 0.00 0.00 72 1011.3
20260506083506 12 164 3.2 11.3 0.00 0.00 0.00 72 1011.4
20260506083025 12 129 0.0 11.3 0.00 0.00 0.00 72 1011.5
20260506082527 12 154 1.6 11.3 0.00 0.00 0.00 73 1011.5
20260506082043 12 133 0.0 8.0 0.00 0.00 0.00 73 1011.4
20260506081554 12 155 1.6 8.0 0.00 0.00 0.00 73 1011.4
20260506081056 12 133 1.6 12.9 0.00 0.00 0.00 73 1011.4
20260506080556 12 146 3.2 9.7 0.00 0.00 0.00 73 1011.4
20260506073514 12 126 0.0 6.4 0.00 0.00 0.00 74 1011.6
20260506073010 12 163 0.0 8.0 0.00 0.00 0.00 74 1011.5
20260506072510 12 146 1.6 8.0 0.00 0.00 0.00 74 1011.6
20260506072019 12 199 1.6 12.9 0.00 0.00 0.00 74 1011.6
20260506071516 12 255 3.2 12.9 0.00 0.00 0.00 74 1011.7
20260506071026 13 238 0.0 9.7 0.00 0.00 0.00 74 1011.7
20260506070533 13 118 1.6 9.7 0.00 0.00 0.00 74 1011.6
20260506062005 13 206 0.0 8.0 0.00 0.00 0.00 74 1011.5
20260506061512 13 189 1.6 8.0 0.00 0.00 0.00 74 1011.6
20260506061018 13 178 0.0 8.0 0.00 0.00 0.00 74 1011.7
20260506060518 13 180 1.6 14.5 0.00 0.00 0.00 74 1011.7
20260506051051 14 207 4.8 12.9 0.00 0.00 0.00 73 1011.9
20260506050555 14 217 3.2 17.7 0.00 0.00 0.00 73 1011.9
20260506045038 14 226 1.6 12.9 0.00 0.00 0.00 72 1011.9
20260506044541 14 211 6.4 12.9 0.00 0.00 0.00 72 1012.0
20260506044055 14 144 4.8 16.1 0.00 0.00 0.00 72 1012.0
20260506043514 14 201 0.0 16.1 0.00 0.00 0.00 72 1012.1
20260506043019 14 289 4.8 14.5 0.00 0.00 0.00 72 1012.1
20260506042530 14 221 6.4 12.9 0.00 0.00 0.00 72 1012.1
20260506042030 14 270 4.8 11.3 0.00 0.00 0.00 72 1012.1
20260506041539 14 229 4.8 12.9 0.00 0.00 0.00 72 1012.1
20260506041035 14 255 4.8 14.5 0.00 0.00 0.00 73 1012.0
20260506040542 14 170 1.6 14.5 0.00 0.00 0.00 73 1012.1
20260506040045 14 219 3.2 16.1 0.00 0.00 0.00 73 1012.1
20260506035548 14 187 1.6 16.1 0.00 0.00 0.00 72 1012.1
20260506035055 14 222 3.2 12.9 0.00 0.00 0.00 72 1012.1
20260506034512 15 216 4.8 12.9 0.00 0.00 0.00 72 1012.0
20260506034021 15 203 3.2 12.9 0.00 0.00 0.00 72 1012.0
20260506033533 15 216 3.2 14.5 0.00 0.00 0.00 72 1012.0
20260506033040 15 251 3.2 14.5 0.00 0.00 0.00 72 1012.0
20260506032543 15 224 4.8 16.1 0.00 0.00 0.00 71 1012.0
20260506032043 15 74 4.8 16.1 0.00 0.00 0.00 71 1012.0
20260506031554 15 246 4.8 16.1 0.00 0.00 0.00 71 1012.0
20260506031007 15 230 3.2 17.7 0.00 0.00 0.00 71 1012.0
20260506030522 15 209 4.8 27.4 0.00 0.00 0.00 70 1012.1
20260506030024 15 226 6.4 27.4 0.00 0.00 0.00 70 1012.1
20260506025538 15 233 6.4 19.3 0.00 0.00 0.00 70 1012.1
20260506025047 15 229 4.8 17.7 0.00 0.00 0.00 69 1012.1
20260506024601 15 218 3.2 17.7 0.00 0.00 0.00 69 1012.1
20260506024502 15 237 6.4 19.3 0.00 0.00 0.00 69 1012.1
20260506024010 15 264 3.2 19.3 0.00 0.00 0.00 68 1012.0
20260506023524 15 225 6.4 17.7 0.00 0.00 0.00 68 1012.1
20260506023043 15 256 4.8 17.7 0.00 0.00 0.00 67 1012.1
20260506022545 15 215 4.8 14.5 0.00 0.00 0.00 67 1012.2
20260506022053 16 228 4.8 22.5 0.00 0.00 0.00 67 1012.1
20260506021518 16 240 9.7 22.5 0.00 0.00 0.00 67 1012.0
20260506021014 16 213 6.4 22.5 0.00 0.00 0.00 66 1011.9
20260506020527 16 239 6.4 19.3 0.00 0.00 0.00 66 1011.8
20260506020033 16 147 8.0 22.5 0.00 0.00 0.00 66 1011.8
20260506015536 16 275 3.2 20.9 0.00 0.00 0.00 66 1011.8
20260506015036 16 185 4.8 20.9 0.00 0.00 0.00 66 1011.7
20260506014544 16 217 11.3 20.9 0.00 0.00 0.00 66 1011.7
20260506014041 16 164 3.2 16.1 0.00 0.00 0.00 66 1011.6
20260506013547 16 210 9.7 22.5 0.00 0.00 0.00 66 1011.5
20260506013047 16 199 8.0 22.5 0.00 0.00 0.00 66 1011.6
20260506012553 16 245 4.8 19.3 0.00 0.00 0.00 67 1011.4
20260506012054 16 209 6.4 19.3 0.00 0.00 0.00 67 1011.4
20260506011559 15 231 4.8 16.1 0.00 0.00 0.00 67 1011.4
20260506011012 15 272 4.8 14.5 0.00 0.00 0.00 67 1011.4
20260506010515 16 221 6.4 12.9 0.00 0.00 0.00 66 1011.3
20260506010044 16 224 1.6 8.0 0.00 0.00 0.00 66 1011.2
20260506005537 16 265 3.2 20.9 0.00 0.00 0.00 66 1011.1
20260506005053 16 257 4.8 20.9 0.00 0.00 0.00 65 1011.1
20260506004557 16 236 11.3 17.7 0.00 0.00 0.00 66 1011.0
20260506004013 16 239 6.4 17.7 0.00 0.00 0.00 66 1011.0
20260506003523 16 214 6.4 14.5 0.00 0.00 0.00 66 1010.9
20260506003037 16 247 4.8 19.3 0.00 0.00 0.00 66 1010.8
20260506002545 16 226 8.0 19.3 0.00 0.00 0.00 65 1010.8
20260506002057 16 219 4.8 19.3 0.00 0.00 0.00 65 1010.8
20260506001509 16 254 8.0 19.3 0.00 0.00 0.00 65 1010.7
20260506001023 16 58 3.2 24.1 0.00 0.00 0.00 65 1010.6
20260506000534 16 266 4.8 16.1 0.00 0.00 0.00 64 1010.5
20260506000048 16 233 6.4 16.1 0.00 0.00 0.00 64 1010.4
20260505235557 16 205 6.4 16.1 0.00 0.00 0.00 64 1010.2
20260505235013 16 151 6.4 32.2 0.00 0.00 0.00 63 1010.3
20260505234533 16 224 11.3 30.6 0.00 0.00 0.00 63 1010.0
20260505234026 17 213 6.4 27.4 0.00 0.00 0.00 62 1010.0
20260505233525 17 218 9.7 25.7 0.00 0.00 0.00 62 1010.0
20260505233037 17 235 6.4 27.4 0.00 0.00 0.00 61 1009.8
20260505232532 17 222 12.9 27.4 0.00 0.00 0.00 61 1009.8
20260505232040 17 216 8.0 16.1 0.00 0.00 0.00 60 1009.9
20260505231537 17 214 4.8 19.3 0.00 0.00 0.00 59 1009.7
20260505231043 18 201 6.4 19.3 0.00 0.00 0.00 59 1009.6
20260505230551 18 185 3.2 16.1 0.00 0.00 0.00 58 1009.8
20260505230007 18 172 1.6 14.5 0.00 0.00 0.00 58 1009.6
20260505225511 18 278 3.2 14.5 0.00 0.00 0.00 58 1009.6
20260505225023 19 138 4.8 14.5 0.00 0.00 0.00 57 1009.6
20260505224535 19 211 1.6 16.1 0.00 0.00 0.00 57 1009.9
20260505224049 19 220 8.0 17.7 0.00 0.00 0.00 56 1010.0
20260505223553 20 228 0.0 16.1 0.00 0.00 0.00 57 1009.9
20260505223503 20 100 0.0 16.1 0.00 0.00 0.00 57 1009.9
20260505223010 20 226 3.2 16.1 0.00 0.00 0.00 56 1009.9
20260505222525 20 205 6.4 17.7 0.00 0.00 0.00 55 1009.8
20260505222032 20 226 6.4 20.9 0.00 0.00 0.00 55 1009.9
20260505221545 20 244 8.0 20.9 0.00 0.00 0.00 54 1009.8
20260505221052 21 224 1.6 9.7 0.00 0.00 0.00 54 1009.8
20260505220555 21 245 3.2 14.5 0.00 0.00 0.00 53 1009.6
20260505220055 21 186 3.2 17.7 0.00 0.00 0.00 53 1009.6
20260505215501 21 220 4.8 16.1 0.00 0.00 0.00 53 1009.7
20260505215001 21 178 6.4 19.3 0.00 0.00 0.00 52 1009.6
20260505214508 22 218 1.6 19.3 0.00 0.00 0.00 53 1009.6
20260505214007 22 158 3.2 16.1 0.00 0.00 0.00 53 1009.5
20260505213513 22 234 3.2 14.5 0.00 0.00 0.00 52 1009.5
20260505213013 22 125 1.6 9.7 0.00 0.00 0.00 53 1009.4
20260505212519 22 106 3.2 9.7 0.00 0.00 0.00 52 1009.4
20260505212023 22 201 0.0 8.0 0.00 0.00 0.00 53 1009.5
20260505211535 22 222 3.2 8.0 0.00 0.00 0.00 52 1009.6
20260505211042 22 253 1.6 14.5 0.00 0.00 0.00 51 1009.6
20260505210549 22 146 4.8 9.7 0.00 0.00 0.00 50 1009.5
20260505205513 23 120 3.2 16.1 0.00 0.00 0.00 49 1009.4
20260505205022 23 204 3.2 11.3 0.00 0.00 0.00 50 1009.4
20260505204542 23 250 3.2 11.3 0.00 0.00 0.00 50 1009.4
20260505204040 23 160 3.2 11.3 0.00 0.00 0.00 50 1009.4
20260505203555 23 115 3.2 14.5 0.00 0.00 0.00 50 1009.4
20260505203013 23 170 3.2 14.5 0.00 0.00 0.00 50 1009.5